Imperial, NE

7:48 AM MDT on September 26, 2017 (GMT -0600)
Imperial Municipal

Weather History for KIML - September, 2013

Change the Weather History Date:

Friday, September 20, 2013

  Actual Average Record
Temperature  
Mean Temperature 61 °F 63 °F  
Max Temperature 79 °F 78 °F 99 °F (2010)
Min Temperature 42 °F 48 °F 29 °F (1983)
Degree Days  
Heating Degree Days 4 4  
Month to date heating degree days 31 45  
Cooling Degree Days 0 2  
Month to date cooling degree days 181 77  
Year to date cooling degree days 1154 943  
Growing Degree Days 10 (Base 50)    
Moisture  
Dew Point 43 °F    
Average Humidity 61    
Maximum Humidity 93    
Minimum Humidity 28    
Precipitation  
Precipitation 0.00 in 0.05 in 1.46 in (1963)
Sea Level Pressure  
Sea Level Pressure 30.09 in    
Wind  
Wind Speed 5 mph (South)    
Max Wind Speed 14 mph    
Max Gust Speed 18 mph    
Visibility 9 miles    
Events Fog    
T = Trace of Precipitation, MM = Missing Value Source: NWS Daily Summary

Daily Weather History Graph

Daily Weather History Graph

Search for Another Location

Airport or City:

Trip Planner

Search our weather history database for the weather conditions in past years. The results will help you decide how hot, cold, wet, or windy it might be!

Date:

Astronomy

Sep. 20, 2013 Rise Set
Actual Time 6:32 AM MDT 6:46 PM MDT
Civil Twilight 6:05 AM MDT 7:13 PM MDT
Nautical Twilight 5:33 AM MDT 7:45 PM MDT
Astronomical Twilight 5:00 AM MDT 8:18 PM MDT
Moon 7:20 PM MDT (9/20) 7:49 AM MDT (9/20)
Length of Visible Light 13h 08m
Length of Day
12h 14m
Full, 98% of the Moon is Illuminated
Sep 20
Full
Sep 26
Last Quarter
Oct 4
New
Oct 11
First Quarter
Oct 18
Full

Hourly Weather History & Observations

Time (MDT) Temp. Windchill Dew Point Humidity Pressure Visibility Wind Dir Wind Speed Gust Speed Precip Events Conditions
12:53 AM 46.9 °F - 45.0 °F 93% 30.17 in 10.0 mi North 4.6 mph - N/A   Clear
1:53 AM 46.0 °F 43.9 °F 44.1 °F 93% 30.16 in 10.0 mi North 4.6 mph - N/A   Clear
2:53 AM 46.9 °F - 44.1 °F 90% 30.15 in 10.0 mi Calm Calm - N/A   Clear
3:53 AM 45.0 °F 43.5 °F 42.1 °F 90% 30.16 in 10.0 mi NNE 3.5 mph - N/A   Clear
4:53 AM 45.0 °F - 41.0 °F 86% 30.15 in 9.0 mi Calm Calm - N/A   Clear
5:53 AM 43.0 °F 41.3 °F 39.9 °F 89% 30.16 in 10.0 mi North 3.5 mph - N/A   Clear
6:36 AM 42.8 °F - 39.2 °F 87% 30.18 in 1.2 mi Calm Calm - N/A   Clear
6:44 AM 42.8 °F - 39.2 °F 87% 30.18 in 0.5 mi Calm Calm - N/A Fog Fog
6:49 AM 42.8 °F - 39.2 °F 87% 30.18 in 3.0 mi Calm Calm - N/A   Clear
6:53 AM 43.0 °F - 39.9 °F 89% 30.18 in 10.0 mi Calm Calm - N/A   Clear
7:53 AM 50.0 °F - 45.0 °F 83% 30.19 in 10.0 mi Calm Calm - N/A   Clear
8:53 AM 54.0 °F - 45.0 °F 72% 30.18 in 10.0 mi Calm Calm - N/A   Clear
9:53 AM 59.0 °F - 46.9 °F 64% 30.18 in 10.0 mi SSE 3.5 mph - N/A   Clear
10:53 AM 66.0 °F - 46.9 °F 50% 30.14 in 10.0 mi SSW 9.2 mph - N/A   Clear
11:53 AM 70.0 °F - 48.0 °F 46% 30.11 in 10.0 mi South 8.1 mph - N/A   Clear
12:53 PM 73.0 °F - 44.1 °F 35% 30.07 in 10.0 mi West 4.6 mph - N/A   Clear
1:53 PM 73.9 °F - 42.1 °F 32% 30.04 in 10.0 mi SSW 5.8 mph - N/A   Partly Cloudy
2:53 PM 78.1 °F - 42.1 °F 28% 30.01 in 10.0 mi WSW 5.8 mph - N/A   Scattered Clouds
3:53 PM 75.9 °F - 43.0 °F 31% 30.01 in 10.0 mi Variable 3.5 mph - N/A   Partly Cloudy
4:53 PM 75.9 °F - 42.1 °F 30% 29.99 in 10.0 mi SSE 3.5 mph - N/A   Partly Cloudy
5:53 PM 75.0 °F - 43.0 °F 32% 29.99 in 10.0 mi South 6.9 mph - N/A   Clear
6:53 PM 64.9 °F - 46.9 °F 52% 30.01 in 10.0 mi SSE 5.8 mph - N/A   Clear
7:53 PM 59.0 °F - 46.0 °F 62% 30.00 in 10.0 mi SSE 5.8 mph - N/A   Clear
8:53 PM 61.0 °F - 45.0 °F 56% 30.00 in 10.0 mi SSE 8.1 mph - N/A   Clear
9:53 PM 61.0 °F - 44.1 °F 54% 30.00 in 10.0 mi South 8.1 mph - N/A   Clear
10:53 PM 57.9 °F - 45.0 °F 62% 29.99 in 10.0 mi SSW 5.8 mph - N/A   Clear
11:53 PM 55.0 °F - 45.0 °F 69% 29.98 in 10.0 mi SSW 5.8 mph - N/A   Clear